www.pogodaiklimat.ru

Погода и климат >> Архив погоды >> Боливия >> Rurrenabaque


ПОГОДА в Rurrenabaque

  • Прогноз погоды в Rurrenabaque
  • Монитор погоды в Rurrenabaque
  • Климат города

АРХИВ ПОГОДЫ в Rurrenabaque

Время (UTC), дата Ветер
(напр.,м/с)
 
Видим.   Явления Облачность Т
(С)
Тd
(С)
f
(%)
Тe
(С)
Тes
(С)
Комфортность P
(гПа)
Po
(гПа)
Тmin
(С)
Tmax
(С)
R
(мм)
R24
(мм)
S
(см)
12 17.05 штиль 0 5000 м слабая морось 10/8 150 м
[Frnb As op]
+21.0 +20.8 99 +26 +26 душно 1012.4 989.1 +20.5 1
15 17.05 штиль 0 1500 м слабая морось 10/9 150 м
[Frnb As op]
+21.6 +21.5 99 +28 +28 очень
душно
1013.0 989.6
18 17.05 штиль 0 20 км {морось} 10/10 150 м
[Frnb]
+23.0 +22.4 96 +31 +31 очень
душно
1009.8 986.5 2
21 17.05 штиль 0 5000 м слабая морось 10/10 120 м
[Frnb]
+22.6 +22.3 98 +30 +30 очень
душно
1007.5 984.2 +23.2
00 18.05 штиль 0 5000 м слабая морось 10/10 120 м
[Frnb]
+22.6 +22.3 98 +30 +30 очень
душно
1007.5 984.2 +23.2
12 18.05 штиль 0 4000 м дымка {морось} 10/10 120 м
[Frnb]
+22.4 +22.4 100 +30 +30 очень
душно
1009.1 985.8 +22.0 2
15 18.05 штиль 0 20 км 10/8 300 м
[Sc Ac trans]
+25.0 +23.7 93 +34 +35 очень
душно
1009.5 986.4
18 18.05 С 4 20 км 8/4 500 м
[Cu med, cong Ci]
+30.0 +25.7 78 +45 +49 опасность
перегрева
1005.8 982.9
21 18.05 С 4 20 км 8/1 500 м
[Cu hum Ci]
+28.0 +25.8 88 +42 +42 опасность
перегрева
1004.3 981.4 +30.5
12 19.05 С 2 20 км 10/10 150 м
[Sc]
+24.0 +24.0 100 +33 +33 очень
душно
1007.9 985.0 +23.0
15 19.05 С 5 20 км 8/6 500 м
[Cu Sc Ac trans]
+28.6 +25.6 84 +42 +44 опасность
перегрева
1008.4 985.5
18 19.05 С 5 6000 м осадки на расстоянии 10/8 480 м
[Cb calv Cs]
+29.2 +26.5 85 +45 +46 опасность
перегрева
1005.6 982.8
21 19.05 С 4 20 км 9/1 600 м
[Cu hum Ci]
+29.0 +26.3 85 +44 +45 опасность
перегрева
1002.9 980.0 +30.0
12 20.05 штиль 0 3000 м слабый дождь 10/10 150 м
[Frnb]
+24.0 +24.0 100 +33 +33 очень
душно
1007.7 984.8 +23.8 30
15 20.05 штиль 0 20 км {ливн. осадки, дождь} 10/8 180 м
[Frnb Ac trans]
+26.0 +25.5 97 +38 +39 очень
душно
1009.2 986.3
18 20.05 С 4 20 км {ливн. осадки} 6/5 480 м
[Cu med, cong Ac lent Ci sp]
+29.0 +26.4 86 +44 +48 опасность
перегрева
1006.2 983.3 4
21 20.05 С 4 20 км 5/5 500 м
[Cu med, cong Ac lent]
+28.3 +26.5 90 +44 +44 опасность
перегрева
1004.4 981.5 +29.5
12 21.05 В 2 2000 м туман на расстоянии {гроза, дождь} 10/8 150 м
[Frnb As op]
+20.5 +20.5 100 +26 +26 душно 1011.6 988.5 +19.0 87
15 21.05 ЮВ 2 20 км в посл. час дождь 10/8 180 м
[Sc As op]
+22.8 +21.8 94 +31 +31 очень
душно
1014.0 990.7
18 21.05 ЮВ 5 20 км {дождь} 10/10 150 м
[Frnb]
+23.0 +22.2 95 +31 +31 очень
душно
1011.6 988.3 0.6
21 21.05 ЮВ 3 20 км 10/10 150 м
[Frnb]
+22.2 +21.8 98 +29 +29 очень
душно
1009.5 986.2 +23.0
12 22.05 штиль 0 2000 м дымка {морось} 10/10 120 м
[Frnb]
+20.4 +20.4 100 +24 +24 комфорт 1013.0 989.7 +20.4 2
15 22.05 штиль 0 20 км 10/10 180 м
[Frnb]
+23.0 +21.7 92 +31 +31 очень
душно
1014.1 990.8
18 22.05 В 2 20 км 10/10 240 м
[Sc]
+23.1 +22.4 96 +32 +32 очень
душно
1012.1 988.8
21 22.05 штиль 0 20 км 10/10 180 м
[Sc]
+23.0 +22.3 96 +31 +31 очень
душно
1009.0 985.7 +24.5
12 23.05 штиль 0 1500 м слабый дождь 10/9 150 м
[Frnb As op]
+22.4 +22.4 100 +30 +30 очень
душно
1013.9 990.6 +21.0 6
15 23.05 штиль 0 4000 м 10/10 150 м
[]
+24.0 +23.3 96 +32 +32 очень
душно
1015.8 992.5
18 23.05 С 4 20 км 9/8 300 м
[Sc Ac trans]
+28.0 +25.5 86 +41 +42 опасность
перегрева
1013.0 990.1 0.7
21 23.05 штиль 0 20 км 9/5 450 м
[Sc Ci]
+27.2 +25.2 89 +39 +40 очень
душно
1010.4 987.5 +28.0

 

Местоположение метеостанции Rurrenabaque (Боливия): широта -14.46 долгота -67.56 высота над уровнем моря 204 м.

В архиве по умолчанию представлена погода в Rurrenabaque за последнюю неделю. Архивные данные за месяц целиком и за предыдущие месяцы, начиная с января 2011 года, Вы можете получить, выбрав интересующий диапазон дат из раскрывающегося списка и нажав кнопку "Ввод!".

Внимание! Время в таблицах - всемирное. Для получения местного времени необходимо прибавить поправку, которая в Rurrenabaque равна -4 ч.

Смотрите также архив погоды в соседних городах и на ближайших метеорологических станциях:

Погода в Reyes (Боливия) (26 км)
Погода в Santa Rosa (Боливия) (78 км)
Погода в San Borja (Боливия) (87 км)
Погода в San Ignacio De Moxo (Боливия) (217 км)
Погода в Ovejuyo (Боливия) (235 км)
Погода в La Paz (Боливия) (238 км)
Погода в Santa Ana (Боливия) (243 км)
Погода в Baures (Боливия) (243 км)
Погода в Puerto Maldonado (Перу) (273 км)
Погода в Trinidad (Боливия) (288 км)

Пояснения к столбцам:

Ветер - указаны скорость ветра в м/с - средняя за 10 мин, порывы в срок и между сроками (в фигурных скобках) и направление, откуда дует ветер: С - северный, СВ - северо-восточный, В - восточный, ЮВ - юго-восточный, Ю - южный, ЮЗ - юго-западный, З - западный, СЗ - северо-западный.
Видимость - горизонтальная дальность видимости в метрах или километрах. При видимости от 1 до 10 км при отсутствии осадков обычно наблюдается дымка, при ухудшении видимости до 1 км и менее - туман. В сухую погоду видимость может ухудшаться дымом, пылью или мглою.
Явления - указаны атмосферные явления, наблюдавшиеся в срок или в последний час перед сроком; фигурными скобками обозначены явления, наблюдавшиеся между сроками (за 1-3 часа до срока); квадратными скобками обозначены град или гололедные отложения с указанием их диаметра в мм.
Облачность - указаны через наклонную черту общая и нижняя облачность в баллах и высота нижней границы облаков в метрах; квадратными скобками обозначены формы облаков: Ci - перистые, Cs - перисто-слоистые, Cc - перисто-кучевые, Ac - высококучевые, As - высокослоистые, Sc - слоисто-кучевые, Ns - слоисто-дождевые, Cu - кучевые, Cb - кучево-дождевые. Подробнее классификацию облаков см. в Атласе облаков (PDF).
T - Температура воздуха - температура, измеренная на высоте 2 м над землей.
Td - Температура точки росы - температура, при понижении до которой содержащийся в воздухе водяной пар достигнет насыщения.
f - Относительная влажность воздуха - влажноcть воздуха, измеренная на высоте 2 м над землей.
Te - Эффективная температура - температура, которую ощущает одетый по сезону человек в тени. Характеристика душности погоды. При расчете учитывается влияние влажности воздуха и скорости ветра на теплоощущения человека.
Tes - Эффективная температура на солнце - температура, которую ощущает человек, с поправкой на солнечный нагрев. Характеристика знойности погоды. Зависит от высоты солнца над горизонтом, облачности и скорости ветра. Ночью, в пасмурную погоду, а также при ветре 12 м/с и более поправка равна нулю.
P - Атмосферное давление - приведенное к уровню моря атмосферное давление.
Po - Атмосферное давление - измеренное на уровне метеостанции атмосферное давление.
Tmin - Минимальная температура - минимум температуры воздуха на высоте 2 м над землей.
Tmax - Максимальная температура - максимум температуры воздуха на высоте 2 м над землей.
R - Количество осадков - Количество выпавших осадков за период времени, мм. При наведении курсора мыши на число - период времени, за который выпало указанное количество осадков.
R24 - Количество осадков - Количество выпавших осадков за 24 часа, мм.
S - Снежный покров - Высота снежного покрова, см. При наведении курсора мыши на число - состояние снежного покрова и степень покрытия местности в баллах.